SCP
-0 0 0 0 0 0 0 0 0 0 0 0 0 0 0 0 0 0 0 0 -0 0 0 0 -0 0 0 0 0 1 1 1 0 -0 -0 -0 -0 0 0 -0 0 -0 -0 -1 -0 -0 -0 -0 -0
0 0 0 0 0 0 0 0 0 0 0 0 0 0 0 0 0 0 0 0 0 0 0 0 0 0 0 0 0 1 1 1 1 0 -0 -0 -0 0 0 -0 -0 -0 -0 -1 -0 -0 -0 -1 -0
0 0 0 0 0 0 0 0 0 0 0 0 0 0 0 0 0 0 0 0 0 0 0 0 0 0 0 0 0 0 1 1 1 1 0 -0 -0 -0 0 0 -0 -0 -0 -1 -1 -0 -0 -0 -0
0 0 0 0 0 0 0 0 0 0 0 0 0 0 0 0 0 0 0 0 0 0 0 0 0 0 0 1 0 0 0 1 1 1 1 0 0 -0 -0 0 -0 -0 -0 -1 -1 -1 -0 -0 -0
0 0 0 0 0 0 0 0 0 0 0 0 0 0 0 0 0 0 0 0 0 0 0 0 0 0 0 0 0 1 0 0 0 1 2 1 1 0 0 -0 -0 -0 -0 -1 -1 -1 -0 -0 -0
0 0 0 0 0 0 0 0 0 0 0 0 0 0 0 0 0 0 0 0 0 0 0 0 0 0 0 0 0 0 0 0 0 1 1 1 1 1 0 0 0 -0 -0 -0 -0 -0 -0 -0 -0
0 0 0 0 0 0 0 0 0 0 0 0 0 0 0 0 0 0 0 0 0 0 0 0 0 0 0 0 0 0 0 0 0 0 1 1 1 1 0 0 0 -0 -0 -0 -0 -0 -0 -0 -0
0 0 0 0 0 0 0 0 0 0 0 0 0 0 0 0 0 0 0 0 0 0 0 0 0 0 0 0 0 0 0 0 0 0 0 0 1 1 1 0 0 0 0 -0 -0 -0 -0 -0 -0
0 0 0 0 0 0 0 0 0 0 0 0 0 0 0 0 0 0 0 0 0 0 0 0 0 0 0 0 0 0 0 0 0 0 1 0 0 0 0 0 0 0 0 0 0 -0 -0 -0 -0
0 0 0 0 0 0 0 0 0 0 0 0 0 0 0 0 0 0 0 0 0 0 0 0 0 0 0 0 0 0 0 0 0 1 1 1 0 0 0 0 0 0 0 0 0 0 0 -0 -0
0 0 0 0 0 0 0 0 0 0 0 0 0 0 0 0 0 0 0 0 0 0 0 0 0 0 0 0 0 0 0 0 0 0 1 1 1 1 1 1 1 1 0 0 0 0 0 -0 0
0 0 0 0 0 0 0 0 0 0 0 0 0 0 0 0 0 0 0 0 0 0 0 0 0 0 0 0 0 0 0 0 0 0 0 0 1 1 2 1 1 1 1 0 0 0 0 0 0
0 0 0 0 0 0 0 0 0 0 0 0 0 0 0 0 0 0 0 0 0 0 0 0 0 0 0 0 0 0 0 0 0 0 0 0 0 2 2 1 1 1 0 0 0 0 0 0 0
0 0 0 0 0 0 0 0 0 0 0 0 0 0 0 0 0 0 0 0 0 0 0 0 0 0 0 0 0 0 0 0 0 0 0 0 0 0 0 0 1 2 1 0 0 0 0 0 0
0 0 0 0 0 0 0 0 0 0 0 0 0 0 0 0 0 0 0 0 0 0 0 0 0 0 0 0 0 0 0 0 0 0 0 0 0 0 0 0 1 1 3 1 1 0 0 0 0
0 0 0 0 0 0 0 0 0 0 0 0 0 0 0 0 0 0 0 0 0 0 0 0 0 0 0 0 0 0 0 0 0 0 0 0 0 0 0 0 0 1 3 2 1 1 0 0 1
0 0 0 0 0 0 0 0 0 0 0 0 0 0 0 0 0 0 0 0 0 0 0 0 0 0 0 0 0 0 0 0 0 0 0 0 0 0 0 0 0 1 1 1 1 1 0 0 1
0 0 0 0 0 0 0 0 0 0 0 0 0 0 0 0 0 0 0 0 -0 -0 -0 -0 -0 -0 -0 -0 0 0 0 0 0 0 0 0 0 0 0 0 0 0 0 1 1 1 1 0 0
0 0 0 0 0 0 0 0 0 0 0 0 0 0 0 0 0 0 0 -0 -0 -0 -0 -0 -0 -0 -0 -0 -0 0 0 0 0 0 0 0 0 0 0 0 0 0 0 1 1 1 1 0 0
0 0 0 0 0 0 0 0 0 0 0 0 0 0 0 0 0 0 0 -0 -0 -0 -0 -0 -0 -0 -0 -0 -0 -0 -0 0 0 0 0 0 0 0 0 0 0 0 -0 0 1 1 1 1 1
0 0 0 0 0 0 0 0 0 0 0 0 0 0 0 0 0 0 0 0 -0 -0 -0 -0 -0 -0 -0 -0 -0 -0 -0 -0 0 0 0 0 0 0 0 0 0 0 0 0 1 0 1 1 1
0 -0 -0 0 -0 0 -0 0 0 0 0 0 0 0 0 0 0 0 0 -0 -0 -0 -0 -0 -0 -0 -0 -0 -0 -0 -0 -0 -0 0 0 0 0 0 0 0 0 0 0 0 0 0 1 1 1
-0 -0 -0 -0 -0 0 0 -0 0 0 0 0 0 0 0 0 0 -0 -0 -0 -0 -0 -0 -0 -0 -0 -0 -0 -0 -0 -0 -0 -0 -0 -0 0 0 0 0 0 0 0 0 0 0 0 0 1 1
-0 -0 -0 -0 0 -0 0 0 0 0 0 0 0 0 0 0 0 0 0 0 0 -0 -0 -0 -0 -0 -0 -0 -0 -0 0 -0 -0 -0 -0 -0 0 0 0 0 0 0 0 0 0 0 0 1 0
-0 -0 -0 -0 -0 -0 0 0 0 0 0 0 0 0 0 0 0 0 0 0 -0 -0 -0 -0 -0 -0 -0 -0 -0 -0 -0 -0 0 -0 -0 -0 -0 0 0 0 0 0 0 0 0 0 0 0 0
-0 -0 -0 -0 -0 0 0 0 0 0 0 0 0 0 0 0 0 0 0 0 -0 -0 -0 -0 -0 -0 -0 -0 -0 -0 -0 -0 -0 -0 -0 -0 -0 -0 0 0 0 0 0 0 0 0 0 0 0
-0 -0 -0 -0 0 0 0 0 0 0 0 0 0 0 0 0 0 0 0 0 0 0 0 0 -0 -0 -0 -0 -0 -0 -0 -0 0 0 0 -0 -0 -0 -0 0 0 0 0 0 0 0 0 0 0
-0 0 -0 0 -0 -0 0 0 0 0 0 0 0 0 0 0 0 0 0 0 0 0 0 0 -0 -0 -0 -0 -0 -0 -0 -0 -0 0 -0 0 -0 -0 -0 0 0 0 0 0 0 0 0 0 0
-0 0 0 0 0 0 0 0 0 0 0 0 0 0 0 0 0 0 0 0 0 0 0 0 0 -0 -0 -0 -0 -0 -0 -0 -0 0 0 0 -0 -0 -0 0 0 0 0 0 0 0 0 0 0
0 0 0 0 0 0 0 0 0 0 0 0 0 0 0 0 0 0 0 0 0 0 0 0 0 0 -0 -0 -0 -0 -0 -0 -0 -0 0 0 0 -0 -0 -0 0 0 0 0 0 0 0 0 0
Wind_Speed_500mb
26 28 19 3 11 7 13 12 5 19 8 30 29 27 52 46 18 10 49 46 43 40 31 15 25 25 22 20 20 24 31 38 40 38 36 32 27 26 25 28 31 30 30 30 30 33 38 37 25
26 27 6 5 10 14 14 10 16 17 22 21 24 22 29 17 53 18 44 54 40 29 21 18 20 27 23 21 20 24 34 39 41 39 37 35 29 27 28 30 33 33 31 30 31 34 37 34 23
25 21 9 4 3 10 13 13 16 16 23 28 9 32 17 28 36 37 53 63 40 16 11 7 7 22 24 23 23 26 34 40 42 42 40 39 31 30 30 32 34 34 32 31 34 35 35 31 29
21 5 3 1 24 23 21 19 22 21 18 39 11 29 28 38 29 46 49 50 46 29 9 5 15 22 28 26 25 26 32 40 41 43 43 41 35 32 32 35 35 36 34 34 34 34 35 34 37
15 6 3 10 20 24 22 27 28 20 21 38 30 20 23 36 45 47 45 48 51 38 22 7 15 25 28 28 29 28 31 39 42 44 45 44 38 36 36 39 38 39 37 35 34 34 36 36 41
4 6 8 11 16 13 26 28 23 32 33 36 23 15 14 43 61 58 50 49 49 48 36 20 9 19 27 30 30 31 33 37 42 45 47 46 42 39 39 41 41 39 39 36 35 35 38 40 43
10 7 7 6 14 12 23 25 41 33 46 31 29 12 5 64 64 54 46 45 49 46 42 32 19 13 20 31 36 36 36 38 42 46 49 48 46 43 43 44 43 40 39 37 38 38 41 41 44
6 7 6 4 1 12 30 14 14 39 40 8 36 22 20 63 58 50 44 45 49 52 45 42 37 21 12 27 31 42 39 38 44 45 50 52 49 47 47 47 46 43 39 38 40 43 45 44 45
6 7 4 11 13 13 29 11 24 21 28 42 33 34 39 51 49 48 51 50 53 55 55 48 41 38 27 16 31 38 44 42 41 47 51 54 54 51 53 52 51 46 41 40 43 45 46 46 48
12 8 8 10 9 26 45 40 15 13 24 30 41 40 43 48 53 61 64 64 65 64 60 58 50 39 35 31 22 30 38 42 38 40 45 54 50 46 51 55 58 51 46 44 46 48 48 49 50
12 10 10 22 18 12 20 51 43 14 26 37 42 48 47 52 56 59 59 61 63 59 56 58 57 50 38 32 31 32 33 44 49 41 36 46 50 52 52 58 62 58 52 51 51 53 54 54 46
24 30 20 14 15 14 24 26 47 45 27 24 28 34 41 52 55 58 61 63 64 62 60 59 56 56 52 40 29 27 33 33 46 56 53 52 63 65 62 62 54 56 60 48 56 54 54 54 50
38 35 44 40 43 43 39 45 40 40 30 28 30 36 42 45 46 49 54 58 63 65 64 64 60 56 56 54 46 37 27 37 37 44 69 68 42 76 73 70 60 60 50 53 53 53 57 57 58
37 41 34 32 29 29 39 36 25 34 29 32 36 41 44 47 49 50 54 57 63 67 68 68 65 62 57 52 53 48 40 34 37 43 62 70 46 56 70 75 73 71 54 50 54 55 59 57 59
45 38 35 18 9 6 13 34 26 23 24 29 34 38 41 46 50 54 53 54 54 57 60 69 73 75 65 56 52 48 47 44 41 39 55 48 36 36 70 90 85 73 65 56 55 57 55 57 56
10 7 6 26 5 10 11 19 23 24 25 30 32 35 38 43 47 50 52 53 54 53 56 59 65 76 81 71 54 50 47 45 39 41 45 46 43 48 77 60 77 88 72 79 65 64 59 57 65
4 5 8 12 26 3 8 17 18 20 24 28 31 34 36 40 45 48 49 50 52 54 56 57 58 66 76 79 74 57 51 45 41 37 37 44 45 54 62 85 96 106 96 75 76 70 61 59 58
8 7 12 13 13 21 27 24 19 20 22 26 28 31 33 37 43 44 47 49 50 53 54 56 57 59 62 63 72 74 62 50 48 40 36 42 40 53 64 81 99 62 120 92 98 82 67 63 58
10 14 13 16 11 13 19 20 16 19 24 27 29 31 33 35 35 40 43 45 48 51 55 56 59 59 59 60 63 74 76 71 51 48 46 42 38 43 54 52 81 78 61 80 99 90 88 67 63
14 13 16 16 10 8 13 17 15 19 22 24 26 29 32 34 36 40 43 46 49 52 54 56 57 57 57 56 55 56 64 70 62 54 48 44 42 38 42 58 64 55 74 77 92 92 108 89 74
15 17 3 2 14 11 7 14 7 9 16 20 24 24 27 32 36 39 42 45 47 52 55 57 58 58 56 58 53 55 55 66 76 76 64 58 51 40 39 42 58 61 63 48 81 106 105 107 86
8 15 0 18 16 7 5 3 5 5 8 21 27 30 31 32 34 36 39 43 47 51 52 54 57 58 57 57 55 57 57 63 71 79 72 63 50 47 38 40 46 58 56 70 63 80 72 98 99
13 6 10 17 10 11 10 6 5 3 11 20 27 31 32 31 33 36 38 41 45 48 53 55 58 59 58 56 53 53 54 55 55 70 76 68 61 54 39 35 41 37 56 64 113 101 93 107 107
7 15 18 9 6 2 6 6 5 9 13 19 25 30 32 34 35 36 39 42 45 48 51 56 59 61 59 55 51 50 51 57 60 65 73 74 67 62 55 41 37 40 38 44 79 71 84 101 106
13 9 4 4 1 6 5 10 4 6 15 21 26 32 32 33 36 38 42 45 46 50 53 57 62 64 61 56 52 50 47 49 58 61 62 73 70 64 54 58 41 41 45 51 53 55 107 65 50
14 9 2 4 4 6 2 7 6 6 15 15 20 26 28 33 36 41 42 44 47 49 54 57 62 65 61 57 52 50 46 48 51 58 55 54 70 62 52 55 49 44 51 46 57 54 49 88 100
5 8 4 5 4 6 0 1 10 1 10 18 22 24 28 33 38 40 42 43 48 50 52 56 59 61 57 54 51 50 46 52 58 56 58 52 55 64 56 51 55 45 44 51 53 56 59 64 86
10 8 3 4 5 5 5 6 3 5 11 22 28 29 28 32 37 40 43 44 46 47 50 52 55 55 54 52 50 49 52 52 59 52 58 55 54 58 58 53 55 53 41 41 51 56 58 47 76
1 4 9 6 4 5 8 2 4 7 6 13 37 33 32 34 35 39 43 44 45 46 49 53 56 55 55 53 51 50 45 51 50 53 57 56 54 53 58 57 55 54 48 40 37 53 60 62 68
2 5 2 5 7 1 5 5 8 12 17 20 35 33 31 30 35 38 40 44 46 48 50 54 57 54 54 52 49 49 51 52 50 51 54 55 53 54 50 53 57 53 52 42 35 31 56 68 69
Wind_Direction_500mb
340 341 345 281 228 221 138 81 26 31 19 360 19 79 90 55 351 23 341 355 18 24 348 321 246 236 235 239 233 232 222 210 202 200 194 188 189 186 182 184 181 178 176 173 165 161 159 160 153
345 351 323 256 256 205 105 52 41 20 23 355 67 127 39 63 19 345 0 4 18 29 55 286 276 230 232 232 231 231 226 220 210 207 204 197 195 194 188 188 186 182 178 178 172 169 168 166 167
347 356 308 328 262 57 113 55 13 9 55 21 91 60 46 347 354 346 343 342 10 26 33 247 237 233 228 229 224 224 226 221 219 216 210 206 207 201 193 190 188 186 182 183 177 177 179 176 171
353 314 161 283 101 62 63 49 13 10 52 25 33 81 91 35 359 344 343 352 4 14 330 306 230 221 213 224 231 223 224 224 224 223 219 214 215 209 199 195 191 191 188 188 186 179 180 179 171
346 288 199 109 90 90 69 30 26 23 22 17 9 102 102 14 4 357 356 357 7 7 7 318 256 241 227 225 219 229 223 225 225 227 225 224 220 218 207 200 196 193 194 196 193 185 186 180 173
297 297 236 171 113 107 58 36 34 23 14 16 18 2 102 5 3 1 359 359 3 8 4 348 273 245 243 234 230 222 230 226 226 228 228 230 229 223 214 206 203 197 201 200 198 192 185 183 177
339 304 33 78 140 94 31 5 30 41 23 18 348 24 312 354 356 357 360 359 1 5 6 5 337 272 225 238 238 232 223 233 228 226 230 233 234 230 221 212 208 205 205 204 200 193 186 187 181
356 290 194 54 154 87 0 47 34 35 40 359 23 15 347 343 350 356 360 0 2 3 4 4 5 328 305 227 228 238 235 228 238 230 229 233 237 234 224 217 214 212 210 206 203 194 188 190 187
341 233 107 38 358 73 16 46 43 57 73 53 44 20 348 346 353 0 2 1 3 3 358 358 358 353 341 307 231 235 231 231 240 238 235 234 236 233 227 218 219 218 214 207 204 197 193 190 189
16 17 70 35 79 101 60 55 46 64 44 22 14 9 3 2 3 3 3 2 1 359 358 354 350 350 343 339 290 243 228 218 220 244 239 236 230 228 222 218 219 218 215 207 204 199 196 188 187
47 59 130 31 85 89 98 58 46 24 40 18 5 2 7 9 10 10 8 3 359 357 356 356 350 342 342 332 329 293 254 231 224 222 243 243 233 223 223 219 218 215 213 207 200 199 195 185 187
105 59 70 54 88 67 71 85 57 52 45 19 18 14 12 13 14 12 10 7 4 0 359 356 355 348 340 335 321 311 286 266 236 209 227 239 246 232 227 218 220 209 209 203 195 193 192 188 192
100 91 87 91 89 85 88 74 68 44 33 28 23 20 21 22 20 17 14 12 11 8 3 0 356 351 346 344 332 319 301 276 275 231 222 228 236 238 231 225 217 210 209 199 198 194 194 194 196
109 108 99 86 93 94 80 63 54 28 23 25 23 23 23 22 20 18 17 12 12 9 8 6 6 359 351 347 339 334 317 302 277 266 237 231 245 242 232 233 220 214 203 206 202 200 196 200 203
121 114 87 71 118 115 280 57 50 29 28 29 26 24 22 21 19 17 13 11 6 7 6 8 10 10 5 354 345 338 332 323 311 285 266 262 243 214 228 244 229 221 214 208 205 204 203 202 204
157 192 222 43 73 25 269 60 47 28 26 30 28 26 23 21 18 15 10 9 9 4 5 4 6 10 14 7 357 348 341 337 329 305 297 278 258 231 224 245 245 227 220 220 205 212 207 207 205
149 75 67 98 32 55 27 104 49 35 33 32 27 24 23 20 18 14 12 10 8 5 5 3 2 2 7 12 7 357 350 347 342 333 319 297 267 242 226 229 252 226 223 214 218 211 210 208 212
57 100 86 53 45 77 85 95 75 48 37 31 27 25 22 19 16 11 10 8 9 6 5 3 1 358 358 0 5 6 360 352 349 343 331 317 304 266 226 229 235 260 210 208 225 221 212 211 214
86 83 90 103 71 66 91 96 76 49 35 27 22 19 17 15 11 10 7 5 4 3 3 2 359 358 357 354 354 1 359 359 354 350 341 334 323 300 275 258 229 243 252 227 215 223 224 213 211
93 96 90 102 87 125 131 103 87 53 38 26 16 14 9 4 4 3 3 2 2 358 358 357 355 353 353 352 349 348 354 357 358 350 352 342 332 322 295 269 241 255 251 223 219 216 223 217 205
74 26 2 39 125 111 162 137 109 67 38 26 23 11 7 3 357 357 358 358 358 356 354 353 350 350 348 348 346 343 343 354 356 0 359 354 342 333 322 293 265 255 236 248 216 214 215 214 206
88 4 164 149 208 67 235 63 86 25 30 29 18 10 4 359 357 356 354 354 355 352 351 351 349 348 344 344 344 344 344 343 347 353 355 359 353 340 336 310 275 253 262 235 241 223 212 220 205
57 5 124 153 122 136 61 251 65 212 16 10 7 1 358 355 353 352 351 350 349 349 350 349 349 348 344 343 341 341 340 340 336 347 351 357 0 351 340 321 289 256 246 246 230 250 229 212 214
140 119 118 132 147 134 309 323 155 15 339 339 345 345 348 346 345 346 346 345 344 347 347 348 347 346 344 343 342 339 338 338 338 341 349 351 356 356 349 336 308 261 239 236 224 237 250 223 214
171 196 153 179 123 8 287 266 28 335 335 329 330 336 339 342 341 339 341 342 341 342 345 346 346 346 344 344 343 338 339 340 336 343 343 348 350 354 351 345 324 287 254 227 233 230 226 237 193
51 40 13 91 349 35 218 345 61 285 329 331 327 337 339 344 344 343 341 341 341 340 342 344 345 345 345 345 343 340 337 341 334 342 343 340 348 350 354 345 336 306 275 252 231 239 232 225 234
49 63 46 106 99 245 18 228 232 273 340 356 353 345 340 341 341 342 343 341 342 342 341 342 344 343 346 347 346 342 342 343 336 344 343 344 340 349 355 352 350 325 290 272 243 233 229 233 233
68 109 176 71 348 331 277 263 58 338 317 328 325 326 325 331 336 339 342 341 340 340 340 341 343 342 344 345 347 344 341 341 339 343 344 344 344 344 354 357 355 350 313 282 264 243 223 221 231
206 91 66 92 333 334 311 70 134 235 268 288 303 318 321 323 326 332 337 339 338 339 339 341 342 343 344 345 346 345 342 333 347 344 346 344 347 346 352 359 359 358 345 307 274 251 237 223 227
88 147 262 267 162 141 298 284 173 234 282 290 297 313 320 319 328 330 333 337 339 340 340 341 342 342 343 343 344 341 338 346 347 345 346 346 349 350 353 357 2 5 357 344 302 268 238 227 223
Wind_Speed_850mb
26 28 19 3 11 7 13 12 5 19 8 30 29 27 52 46 18 10 49 46 43 40 31 15 25 25 22 20 20 24 31 38 40 38 36 32 27 26 25 28 31 30 30 30 30 33 38 37 25
26 27 6 5 10 14 14 10 16 17 22 21 24 22 29 17 53 18 44 54 40 29 21 18 20 27 23 21 20 24 34 39 41 39 37 35 29 27 28 30 33 33 31 30 31 34 37 34 23
25 21 9 4 3 10 13 13 16 16 23 28 9 32 17 28 36 37 53 63 40 16 11 7 7 22 24 23 23 26 34 40 42 42 40 39 31 30 30 32 34 34 32 31 34 35 35 31 29
21 5 3 1 24 23 21 19 22 21 18 39 11 29 28 38 29 46 49 50 46 29 9 5 15 22 28 26 25 26 32 40 41 43 43 41 35 32 32 35 35 36 34 34 34 34 35 34 37
15 6 3 10 20 24 22 27 28 20 21 38 30 20 23 36 45 47 45 48 51 38 22 7 15 25 28 28 29 28 31 39 42 44 45 44 38 36 36 39 38 39 37 35 34 34 36 36 41
4 6 8 11 16 13 26 28 23 32 33 36 23 15 14 43 61 58 50 49 49 48 36 20 9 19 27 30 30 31 33 37 42 45 47 46 42 39 39 41 41 39 39 36 35 35 38 40 43
10 7 7 6 14 12 23 25 41 33 46 31 29 12 5 64 64 54 46 45 49 46 42 32 19 13 20 31 36 36 36 38 42 46 49 48 46 43 43 44 43 40 39 37 38 38 41 41 44
6 7 6 4 1 12 30 14 14 39 40 8 36 22 20 63 58 50 44 45 49 52 45 42 37 21 12 27 31 42 39 38 44 45 50 52 49 47 47 47 46 43 39 38 40 43 45 44 45
6 7 4 11 13 13 29 11 24 21 28 42 33 34 39 51 49 48 51 50 53 55 55 48 41 38 27 16 31 38 44 42 41 47 51 54 54 51 53 52 51 46 41 40 43 45 46 46 48
12 8 8 10 9 26 45 40 15 13 24 30 41 40 43 48 53 61 64 64 65 64 60 58 50 39 35 31 22 30 38 42 38 40 45 54 50 46 51 55 58 51 46 44 46 48 48 49 50
12 10 10 22 18 12 20 51 43 14 26 37 42 48 47 52 56 59 59 61 63 59 56 58 57 50 38 32 31 32 33 44 49 41 36 46 50 52 52 58 62 58 52 51 51 53 54 54 46
24 30 20 14 15 14 24 26 47 45 27 24 28 34 41 52 55 58 61 63 64 62 60 59 56 56 52 40 29 27 33 33 46 56 53 52 63 65 62 62 54 56 60 48 56 54 54 54 50
38 35 44 40 43 43 39 45 40 40 30 28 30 36 42 45 46 49 54 58 63 65 64 64 60 56 56 54 46 37 27 37 37 44 69 68 42 76 73 70 60 60 50 53 53 53 57 57 58
37 41 34 32 29 29 39 36 25 34 29 32 36 41 44 47 49 50 54 57 63 67 68 68 65 62 57 52 53 48 40 34 37 43 62 70 46 56 70 75 73 71 54 50 54 55 59 57 59
45 38 35 18 9 6 13 34 26 23 24 29 34 38 41 46 50 54 53 54 54 57 60 69 73 75 65 56 52 48 47 44 41 39 55 48 36 36 70 90 85 73 65 56 55 57 55 57 56
10 7 6 26 5 10 11 19 23 24 25 30 32 35 38 43 47 50 52 53 54 53 56 59 65 76 81 71 54 50 47 45 39 41 45 46 43 48 77 60 77 88 72 79 65 64 59 57 65
4 5 8 12 26 3 8 17 18 20 24 28 31 34 36 40 45 48 49 50 52 54 56 57 58 66 76 79 74 57 51 45 41 37 37 44 45 54 62 85 96 106 96 75 76 70 61 59 58
8 7 12 13 13 21 27 24 19 20 22 26 28 31 33 37 43 44 47 49 50 53 54 56 57 59 62 63 72 74 62 50 48 40 36 42 40 53 64 81 99 62 120 92 98 82 67 63 58
10 14 13 16 11 13 19 20 16 19 24 27 29 31 33 35 35 40 43 45 48 51 55 56 59 59 59 60 63 74 76 71 51 48 46 42 38 43 54 52 81 78 61 80 99 90 88 67 63
14 13 16 16 10 8 13 17 15 19 22 24 26 29 32 34 36 40 43 46 49 52 54 56 57 57 57 56 55 56 64 70 62 54 48 44 42 38 42 58 64 55 74 77 92 92 108 89 74
15 17 3 2 14 11 7 14 7 9 16 20 24 24 27 32 36 39 42 45 47 52 55 57 58 58 56 58 53 55 55 66 76 76 64 58 51 40 39 42 58 61 63 48 81 106 105 107 86
8 15 0 18 16 7 5 3 5 5 8 21 27 30 31 32 34 36 39 43 47 51 52 54 57 58 57 57 55 57 57 63 71 79 72 63 50 47 38 40 46 58 56 70 63 80 72 98 99
13 6 10 17 10 11 10 6 5 3 11 20 27 31 32 31 33 36 38 41 45 48 53 55 58 59 58 56 53 53 54 55 55 70 76 68 61 54 39 35 41 37 56 64 113 101 93 107 107
7 15 18 9 6 2 6 6 5 9 13 19 25 30 32 34 35 36 39 42 45 48 51 56 59 61 59 55 51 50 51 57 60 65 73 74 67 62 55 41 37 40 38 44 79 71 84 101 106
13 9 4 4 1 6 5 10 4 6 15 21 26 32 32 33 36 38 42 45 46 50 53 57 62 64 61 56 52 50 47 49 58 61 62 73 70 64 54 58 41 41 45 51 53 55 107 65 50
14 9 2 4 4 6 2 7 6 6 15 15 20 26 28 33 36 41 42 44 47 49 54 57 62 65 61 57 52 50 46 48 51 58 55 54 70 62 52 55 49 44 51 46 57 54 49 88 100
5 8 4 5 4 6 0 1 10 1 10 18 22 24 28 33 38 40 42 43 48 50 52 56 59 61 57 54 51 50 46 52 58 56 58 52 55 64 56 51 55 45 44 51 53 56 59 64 86
10 8 3 4 5 5 5 6 3 5 11 22 28 29 28 32 37 40 43 44 46 47 50 52 55 55 54 52 50 49 52 52 59 52 58 55 54 58 58 53 55 53 41 41 51 56 58 47 76
1 4 9 6 4 5 8 2 4 7 6 13 37 33 32 34 35 39 43 44 45 46 49 53 56 55 55 53 51 50 45 51 50 53 57 56 54 53 58 57 55 54 48 40 37 53 60 62 68
2 5 2 5 7 1 5 5 8 12 17 20 35 33 31 30 35 38 40 44 46 48 50 54 57 54 54 52 49 49 51 52 50 51 54 55 53 54 50 53 57 53 52 42 35 31 56 68 69
Wind_Direction_850mb
340 341 345 281 228 221 138 81 26 31 19 360 19 79 90 55 351 23 341 355 18 24 348 321 246 236 235 239 233 232 222 210 202 200 194 188 189 186 182 184 181 178 176 173 165 161 159 160 153
345 351 323 256 256 205 105 52 41 20 23 355 67 127 39 63 19 345 0 4 18 29 55 286 276 230 232 232 231 231 226 220 210 207 204 197 195 194 188 188 186 182 178 178 172 169 168 166 167
347 356 308 328 262 57 113 55 13 9 55 21 91 60 46 347 354 346 343 342 10 26 33 247 237 233 228 229 224 224 226 221 219 216 210 206 207 201 193 190 188 186 182 183 177 177 179 176 171
353 314 161 283 101 62 63 49 13 10 52 25 33 81 91 35 359 344 343 352 4 14 330 306 230 221 213 224 231 223 224 224 224 223 219 214 215 209 199 195 191 191 188 188 186 179 180 179 171
346 288 199 109 90 90 69 30 26 23 22 17 9 102 102 14 4 357 356 357 7 7 7 318 256 241 227 225 219 229 223 225 225 227 225 224 220 218 207 200 196 193 194 196 193 185 186 180 173
297 297 236 171 113 107 58 36 34 23 14 16 18 2 102 5 3 1 359 359 3 8 4 348 273 245 243 234 230 222 230 226 226 228 228 230 229 223 214 206 203 197 201 200 198 192 185 183 177
339 304 33 78 140 94 31 5 30 41 23 18 348 24 312 354 356 357 360 359 1 5 6 5 337 272 225 238 238 232 223 233 228 226 230 233 234 230 221 212 208 205 205 204 200 193 186 187 181
356 290 194 54 154 87 0 47 34 35 40 359 23 15 347 343 350 356 360 0 2 3 4 4 5 328 305 227 228 238 235 228 238 230 229 233 237 234 224 217 214 212 210 206 203 194 188 190 187
341 233 107 38 358 73 16 46 43 57 73 53 44 20 348 346 353 0 2 1 3 3 358 358 358 353 341 307 231 235 231 231 240 238 235 234 236 233 227 218 219 218 214 207 204 197 193 190 189
16 17 70 35 79 101 60 55 46 64 44 22 14 9 3 2 3 3 3 2 1 359 358 354 350 350 343 339 290 243 228 218 220 244 239 236 230 228 222 218 219 218 215 207 204 199 196 188 187
47 59 130 31 85 89 98 58 46 24 40 18 5 2 7 9 10 10 8 3 359 357 356 356 350 342 342 332 329 293 254 231 224 222 243 243 233 223 223 219 218 215 213 207 200 199 195 185 187
105 59 70 54 88 67 71 85 57 52 45 19 18 14 12 13 14 12 10 7 4 0 359 356 355 348 340 335 321 311 286 266 236 209 227 239 246 232 227 218 220 209 209 203 195 193 192 188 192
100 91 87 91 89 85 88 74 68 44 33 28 23 20 21 22 20 17 14 12 11 8 3 0 356 351 346 344 332 319 301 276 275 231 222 228 236 238 231 225 217 210 209 199 198 194 194 194 196
109 108 99 86 93 94 80 63 54 28 23 25 23 23 23 22 20 18 17 12 12 9 8 6 6 359 351 347 339 334 317 302 277 266 237 231 245 242 232 233 220 214 203 206 202 200 196 200 203
121 114 87 71 118 115 280 57 50 29 28 29 26 24 22 21 19 17 13 11 6 7 6 8 10 10 5 354 345 338 332 323 311 285 266 262 243 214 228 244 229 221 214 208 205 204 203 202 204
157 192 222 43 73 25 269 60 47 28 26 30 28 26 23 21 18 15 10 9 9 4 5 4 6 10 14 7 357 348 341 337 329 305 297 278 258 231 224 245 245 227 220 220 205 212 207 207 205
149 75 67 98 32 55 27 104 49 35 33 32 27 24 23 20 18 14 12 10 8 5 5 3 2 2 7 12 7 357 350 347 342 333 319 297 267 242 226 229 252 226 223 214 218 211 210 208 212
57 100 86 53 45 77 85 95 75 48 37 31 27 25 22 19 16 11 10 8 9 6 5 3 1 358 358 0 5 6 360 352 349 343 331 317 304 266 226 229 235 260 210 208 225 221 212 211 214
86 83 90 103 71 66 91 96 76 49 35 27 22 19 17 15 11 10 7 5 4 3 3 2 359 358 357 354 354 1 359 359 354 350 341 334 323 300 275 258 229 243 252 227 215 223 224 213 211
93 96 90 102 87 125 131 103 87 53 38 26 16 14 9 4 4 3 3 2 2 358 358 357 355 353 353 352 349 348 354 357 358 350 352 342 332 322 295 269 241 255 251 223 219 216 223 217 205
74 26 2 39 125 111 162 137 109 67 38 26 23 11 7 3 357 357 358 358 358 356 354 353 350 350 348 348 346 343 343 354 356 0 359 354 342 333 322 293 265 255 236 248 216 214 215 214 206
88 4 164 149 208 67 235 63 86 25 30 29 18 10 4 359 357 356 354 354 355 352 351 351 349 348 344 344 344 344 344 343 347 353 355 359 353 340 336 310 275 253 262 235 241 223 212 220 205
57 5 124 153 122 136 61 251 65 212 16 10 7 1 358 355 353 352 351 350 349 349 350 349 349 348 344 343 341 341 340 340 336 347 351 357 0 351 340 321 289 256 246 246 230 250 229 212 214
140 119 118 132 147 134 309 323 155 15 339 339 345 345 348 346 345 346 346 345 344 347 347 348 347 346 344 343 342 339 338 338 338 341 349 351 356 356 349 336 308 261 239 236 224 237 250 223 214
171 196 153 179 123 8 287 266 28 335 335 329 330 336 339 342 341 339 341 342 341 342 345 346 346 346 344 344 343 338 339 340 336 343 343 348 350 354 351 345 324 287 254 227 233 230 226 237 193
51 40 13 91 349 35 218 345 61 285 329 331 327 337 339 344 344 343 341 341 341 340 342 344 345 345 345 345 343 340 337 341 334 342 343 340 348 350 354 345 336 306 275 252 231 239 232 225 234
49 63 46 106 99 245 18 228 232 273 340 356 353 345 340 341 341 342 343 341 342 342 341 342 344 343 346 347 346 342 342 343 336 344 343 344 340 349 355 352 350 325 290 272 243 233 229 233 233
68 109 176 71 348 331 277 263 58 338 317 328 325 326 325 331 336 339 342 341 340 340 340 341 343 342 344 345 347 344 341 341 339 343 344 344 344 344 354 357 355 350 313 282 264 243 223 221 231
206 91 66 92 333 334 311 70 134 235 268 288 303 318 321 323 326 332 337 339 338 339 339 341 342 343 344 345 346 345 342 333 347 344 346 344 347 346 352 359 359 358 345 307 274 251 237 223 227
88 147 262 267 162 141 298 284 173 234 282 290 297 313 320 319 328 330 333 337 339 340 340 341 342 342 343 343 344 341 338 346 347 345 346 346 349 350 353 357 2 5 357 344 302 268 238 227 223